Temp_Advection
nan nan nan nan nan nan nan nan nan nan nan nan nan nan nan nan nan nan nan nan nan nan nan nan nan nan nan nan nan nan nan nan nan nan nan nan nan nan nan nan nan nan nan
nan 0 0 -0 0 0 0 0 0 0 0 0 0 -0 -0 -0 -0 -0 -0 0 -0 -0 0 -0 -0 0 -0 0 -0 -0 -0 -0 -0 0 0 0 0 0 -0 -0 -0 -0 nan
nan 0 -0 -0 -0 0 0 0 0 0 0 0 0 0 0 0 0 -0 -0 -0 -0 -0 -0 0 -0 -0 -0 -0 -0 -0 -0 -0 -0 0 0 0 0 -0 -0 -0 -0 -0 nan
nan -0 -0 -0 -0 0 0 0 0 0 0 -0 -0 0 0 0 0 0 -0 -0 -0 -0 -0 -0 0 -0 -0 -0 0 -0 -0 -0 -0 -0 0 0 0 -0 -0 -0 -0 -0 nan
nan -0 0 0 0 0 0 0 0 0 0 0 -0 -0 -0 0 0 0 0 -0 -0 -0 -0 -0 -0 -0 -0 -0 0 -0 0 0 -0 -0 0 0 0 -0 -0 -0 -0 -0 nan
nan -0 0 0 0 0 0 0 0 0 0 0 0 -0 0 0 0 0 0 0 -0 -0 0 -0 -0 -0 -0 -0 -0 -0 0 0 0 -0 0 -0 -0 -0 -0 -0 -0 -0 nan
nan 0 0 0 0 0 0 0 0 0 0 0 0 -0 0 0 0 0 0 0 0 -0 -0 -0 0 -0 -0 -0 -0 -0 -0 -0 -0 -0 -0 0 0 -0 -0 -0 -0 -0 nan
nan 0 0 0 0 0 0 0 0 0 0 0 -0 -0 0 0 0 0 0 0 0 0 -0 -0 -0 0 -0 -0 -0 -0 -0 -0 -0 -0 -0 -0 0 -0 -0 -0 -0 -0 nan
nan 0 -0 0 0 0 0 0 0 -0 -0 0 0 0 0 0 0 0 0 0 0 -0 -0 0 0 -0 0 -0 -0 -0 -0 -0 -0 -0 -0 -0 0 -0 0 0 0 0 nan
nan -0 -0 0 0 0 0 0 -0 -0 -0 0 0 0 0 -0 -0 0 0 0 0 -0 -0 -0 0 0 0 0 0 0 -0 -0 -0 -0 0 0 -0 -0 -0 0 0 0 nan
nan 0 -0 -0 -0 0 -0 -0 -0 0 0 0 -0 0 -0 -0 0 0 0 0 0 0 -0 0 0 0 0 0 0 0 0 0 -0 -0 0 0 0 0 0 0 0 0 nan
nan 0 0 0 -0 0 -0 -0 0 0 0 0 -0 -0 -0 0 0 0 0 0 0 0 0 -0 -0 0 0 0 0 0 0 0 0 0 0 0 0 -0 -0 0 0 0 nan
nan -0 -0 0 0 -0 0 0 -0 0 -0 0 0 -0 -0 -0 0 0 0 0 0 0 0 -0 -0 -0 0 0 0 0 0 0 0 0 -0 0 0 -0 -0 -0 -0 0 nan
nan -0 -0 -0 -0 0 0 0 0 0 -0 0 0 -0 -0 -0 0 0 0 0 0 0 0 -0 -0 -0 0 0 0 0 0 0 0 0 0 0 0 0 -0 -0 -0 0 nan
nan -0 -0 -0 -0 -0 -0 0 0 0 0 0 0 0 -0 -0 0 0 0 0 0 0 0 0 0 0 -0 -0 0 0 0 0 0 0 0 0 0 -0 -0 -0 -0 -0 nan
nan 0 -0 -0 -0 -0 -1 -1 -0 0 0 0 0 -0 -0 -0 0 0 0 0 -0 -0 0 0 0 0 0 -0 -0 0 0 0 0 0 0 -0 -0 -0 -0 -0 -0 0 nan
nan -0 0 -0 -0 -0 -1 -0 -0 -0 0 0 0 0 -0 -0 -1 -0 0 0 -0 -0 0 0 0 0 0 -0 -0 0 0 0 0 0 0 0 0 -0 -0 -0 -0 -0 nan
nan -0 -0 -0 0 0 -0 -1 -1 -0 -0 -0 0 0 -0 -0 0 0 0 -0 -0 0 1 0 0 0 0 0 -0 0 0 0 0 0 0 -0 -0 0 -0 -0 -0 -0 nan
nan -0 -0 0 -0 -0 0 0 -0 -1 -1 -0 0 0 0 0 0 0 -0 -0 -0 0 1 0 0 0 0 0 0 -0 -0 0 0 -0 -0 -0 0 0 -0 -0 -0 -0 nan
nan -0 -0 -0 -0 -0 -0 -0 0 -0 -0 -0 -1 0 0 -0 -0 -0 -0 0 0 0 0 0 0 0 -0 -0 0 0 -0 0 -0 -0 0 0 -0 -0 0 -0 -0 -0 nan
nan -0 -0 -1 -1 0 0 -0 -1 -0 0 -0 -1 -1 -0 1 0 -0 -0 0 0 0 0 -0 -0 -0 0 0 0 -0 0 0 -0 -0 0 0 -0 -0 0 0 -0 -0 nan
nan -1 -1 -1 -1 -1 0 1 0 -1 -1 -0 -0 -1 -1 -1 0 0 -1 0 0 1 -0 -1 -0 0 -0 0 0 0 0 -0 -0 -0 0 -0 -0 0 0 1 0 0 nan
nan -1 -1 -0 -0 -2 -2 -0 0 -0 -0 -0 -0 -1 -1 -0 -0 1 0 -0 0 0 -0 -0 -0 -0 -0 0 0 0 0 -0 -0 -0 -0 0 -0 -0 0 0 0 0 nan
nan 0 -0 0 1 0 -1 -1 -0 -0 -0 -0 -0 -0 -0 -0 -1 -1 -0 1 0 0 -0 -0 -0 -0 0 0 0 0 0 1 0 -0 -0 -0 -0 -0 -0 -0 -0 -0 nan
nan -0 0 0 0 0 0 -0 -0 -0 -0 -0 -0 -0 -0 -0 -0 -0 -0 0 0 -1 -1 -0 0 0 0 0 0 1 0 1 1 1 0 0 0 -0 -1 -1 -0 -0 nan
nan nan nan nan nan nan nan nan nan nan nan nan nan nan nan nan nan nan nan nan nan nan nan nan nan nan nan nan nan nan nan nan nan nan nan nan nan nan nan nan nan nan nan
Wind_Speed
1 1 6 9 10 11 10 8 7 6 5 4 4 5 6 8 10 12 12 12 13 12 10 10 12 11 11 12 11 11 11 10 10 11 13 9 8 9 10 10 10 9 9
3 4 5 9 12 10 10 8 7 5 5 3 4 6 5 6 8 10 10 11 11 11 9 9 8 8 9 11 11 10 12 12 12 10 7 6 7 8 8 9 9 10 9
6 6 5 9 12 11 9 8 8 6 5 4 2 4 4 5 6 8 10 11 9 9 7 4 4 6 7 9 11 12 14 12 9 8 8 6 6 7 7 8 9 9 8
7 6 5 8 12 11 9 8 8 7 6 4 3 1 4 4 5 7 10 11 9 7 5 3 2 5 8 11 13 14 12 8 5 4 7 7 5 5 6 8 8 9 9
4 9 5 7 10 11 10 9 8 8 6 4 4 3 1 4 5 6 9 10 9 8 5 3 4 8 12 14 15 14 10 7 4 4 4 5 5 5 6 7 7 7 7
5 6 7 6 8 9 10 9 8 8 7 6 5 4 3 3 5 6 10 9 7 6 5 5 7 9 12 13 15 13 10 7 5 3 1 2 2 4 5 6 6 6 6
4 6 9 8 7 8 9 10 10 9 8 7 6 5 4 5 6 8 11 8 5 4 4 6 8 9 10 11 13 14 11 7 5 4 3 1 1 2 3 4 4 4 4
5 4 8 8 8 9 11 11 11 11 10 9 8 7 7 6 7 8 10 10 8 5 5 7 9 9 9 10 12 13 11 9 5 4 3 1 1 1 2 2 2 3 3
5 7 7 9 7 9 12 12 12 12 12 11 10 10 9 9 9 9 11 12 12 9 7 9 10 10 10 10 10 12 12 10 7 5 3 2 0 2 2 2 1 1 1
6 7 9 9 9 9 11 12 12 13 14 14 13 13 12 12 12 11 11 13 13 13 10 10 11 11 11 11 10 11 12 12 9 6 5 3 3 3 3 3 3 3 3
7 7 11 12 12 13 11 12 15 15 15 15 16 16 16 15 14 13 13 14 15 17 13 12 13 13 13 12 11 11 12 12 11 8 6 5 5 5 5 5 5 5 5
13 12 11 12 16 16 16 16 16 15 16 16 17 19 19 17 16 15 15 16 15 17 18 15 14 15 16 14 13 13 13 14 13 11 9 7 7 7 6 7 8 7 7
20 18 16 17 16 18 21 21 21 20 20 19 20 20 21 20 18 18 18 18 18 18 22 20 17 18 19 18 16 15 15 15 15 14 12 11 9 10 9 9 9 9 9
17 16 17 18 20 21 21 22 25 26 24 24 22 20 21 23 22 22 22 21 20 18 21 23 21 19 19 19 19 18 16 16 18 17 15 14 12 12 12 12 12 11 11
16 15 16 17 18 20 23 25 24 24 28 28 25 23 21 22 23 22 22 21 21 19 18 20 23 23 21 20 22 22 21 19 17 19 17 16 16 16 15 14 14 15 14
17 17 17 18 19 20 21 22 27 28 26 30 30 27 26 25 26 24 23 23 23 23 21 21 23 25 24 22 23 24 23 22 19 19 19 17 20 19 18 17 17 17 17
17 19 21 22 22 24 25 25 23 26 31 30 33 33 31 29 29 28 29 26 26 24 24 24 23 25 24 23 23 20 21 22 22 20 22 23 22 22 21 21 21 19 18
12 16 21 26 28 28 29 30 30 28 27 34 33 34 34 32 30 29 29 30 26 27 28 28 25 25 26 23 23 23 21 21 22 21 24 27 26 25 25 24 22 20 19
20 25 29 29 28 31 34 32 32 30 30 29 36 35 34 32 31 32 30 34 30 30 32 31 29 27 29 28 29 23 23 23 23 25 25 22 25 26 26 25 25 24 23
22 26 29 30 30 31 32 33 33 33 31 30 31 38 36 34 32 34 33 35 34 33 34 33 32 29 29 32 29 27 26 26 26 27 26 27 26 28 30 31 29 28 27
28 31 34 34 35 35 33 30 32 33 33 32 30 31 38 39 34 34 33 33 35 36 34 35 33 31 30 27 29 28 27 26 27 26 26 27 28 27 28 30 32 33 32
28 24 26 28 31 34 38 34 30 29 33 32 30 28 29 37 41 35 35 35 34 35 35 34 31 32 28 25 23 22 23 25 27 29 28 28 28 29 31 31 31 30 31
25 25 25 24 29 31 31 35 31 29 29 34 27 30 27 27 33 41 37 35 35 37 36 34 31 30 26 24 24 19 8 13 16 17 17 20 23 25 27 27 25 28 31
24 26 25 24 29 29 23 26 25 25 26 29 29 27 27 26 25 28 38 36 33 33 34 33 31 33 27 25 25 26 27 27 17 18 22 21 21 25 26 27 29 32 30
20 22 24 21 24 18 14 14 17 20 20 22 23 24 27 24 27 23 25 32 33 32 32 30 32 33 30 29 28 25 25 26 26 30 28 26 27 28 30 31 30 32 30
19 20 23 20 18 14 11 12 15 17 19 20 21 21 22 25 25 26 26 22 31 35 35 32 28 33 31 29 29 25 25 26 26 24 28 29 33 34 30 24 27 31 30
Wind_Direction
232 166 183 176 173 169 165 161 155 147 136 116 108 98 100 103 114 122 120 116 118 107 114 117 103 103 105 124 124 106 113 110 107 105 98 94 81 63 53 56 59 61 64
230 233 213 192 183 176 171 170 168 158 152 109 101 78 101 109 121 132 126 125 123 118 122 125 121 108 115 123 137 121 115 111 105 98 85 69 58 50 53 53 51 56 65
225 207 220 206 192 187 179 175 172 168 163 148 158 92 100 115 126 139 139 129 132 142 148 131 150 140 129 137 138 132 122 118 114 97 88 72 52 56 58 59 56 57 62
175 177 218 210 198 191 186 182 179 177 176 168 171 109 103 132 135 146 156 149 142 163 188 195 168 153 149 150 143 137 132 132 128 111 85 67 50 53 53 51 53 59 63
175 172 212 211 204 198 194 192 188 185 187 188 180 204 213 159 157 160 165 166 170 190 188 166 151 144 149 151 149 148 143 141 131 107 108 35 36 46 49 50 55 60 66
166 191 207 202 205 206 206 202 199 202 203 199 197 213 201 179 176 171 163 158 162 175 167 163 151 150 153 157 160 159 162 174 176 180 193 4 37 38 44 49 53 59 65
153 202 218 215 217 220 217 216 214 212 213 214 212 222 227 198 185 185 186 182 177 174 182 171 162 163 163 163 170 174 178 195 197 183 152 152 88 49 48 53 55 61 65
171 203 215 221 229 232 227 226 226 225 225 225 229 232 231 221 214 210 205 206 209 203 196 187 180 181 179 175 179 187 198 211 221 194 158 177 58 13 19 39 50 56 59
199 213 228 225 244 234 222 230 238 238 238 241 238 234 235 232 227 228 225 221 223 223 216 205 198 197 199 193 189 192 201 211 217 217 200 187 226 316 318 330 343 353 12
232 232 239 232 239 237 225 229 236 246 247 246 244 242 238 241 238 235 234 229 233 225 230 222 212 207 205 205 202 199 203 208 223 226 230 233 268 290 289 288 285 287 290
260 241 238 248 244 245 251 247 239 236 242 248 249 249 247 246 245 243 240 235 234 231 233 234 225 220 216 214 210 206 207 214 222 234 234 232 260 282 285 280 273 273 275
281 262 249 239 245 245 247 247 250 249 244 247 251 253 251 250 247 246 244 241 242 237 231 236 234 230 227 223 219 216 213 219 223 233 237 237 256 274 279 276 274 275 273
289 281 263 251 245 244 248 248 247 248 252 249 253 253 253 250 248 244 241 237 235 236 232 234 237 235 233 231 229 226 220 222 227 237 245 247 257 270 278 274 272 274 272
293 292 281 271 258 249 247 246 248 248 247 245 249 256 247 248 247 245 243 236 237 242 243 242 244 244 243 240 236 235 229 228 229 237 247 251 257 265 274 278 274 274 272
313 312 306 292 282 272 256 248 248 247 247 247 247 248 250 248 244 240 241 233 236 238 248 251 251 248 247 246 244 242 238 236 230 235 250 255 261 265 273 276 279 275 274
308 309 305 300 295 287 277 267 253 248 247 244 246 248 248 252 245 240 237 238 242 244 253 257 257 253 251 252 250 246 246 241 239 243 252 257 259 264 270 274 280 279 275
290 291 292 293 291 287 285 277 268 256 247 244 242 243 248 249 253 244 239 242 243 245 252 256 259 251 247 246 248 244 245 245 249 253 262 262 260 264 267 272 278 276 278
285 282 282 285 284 282 283 280 276 268 256 245 243 240 241 241 246 244 248 245 245 245 250 255 257 250 248 244 244 240 243 247 252 260 270 263 260 263 266 269 273 273 276
278 280 280 279 279 280 276 271 273 270 262 256 244 242 239 241 240 242 246 245 244 244 250 254 254 252 246 244 246 249 249 250 253 259 266 265 264 265 265 265 266 269 272
274 273 275 276 279 281 277 273 270 266 261 261 255 245 243 239 243 245 247 245 242 243 248 253 250 247 249 252 254 247 250 252 257 261 266 272 273 271 274 267 265 267 270
285 278 275 276 275 279 276 273 269 266 263 263 263 256 245 243 240 245 245 245 245 248 251 250 250 249 249 250 249 253 253 245 253 259 263 267 267 271 272 267 265 268 270
318 304 295 289 285 275 267 267 265 268 266 262 266 265 255 245 243 244 246 247 245 245 244 246 246 243 242 237 238 245 253 251 254 257 262 265 270 276 273 272 266 268 270
328 323 318 312 308 296 275 260 261 263 264 260 260 266 260 253 247 245 250 248 249 247 248 247 245 241 241 239 244 236 223 237 264 274 273 272 271 268 272 270 268 270 268
329 325 329 329 325 315 285 257 258 266 268 265 259 265 269 264 262 254 246 248 250 252 251 248 242 243 238 239 241 242 246 252 258 284 280 278 271 266 266 271 275 271 265
331 330 334 331 335 328 312 260 266 268 273 273 262 262 261 264 262 261 263 249 247 251 251 246 242 245 245 248 252 254 256 255 258 263 275 275 278 272 275 280 270 268 259
335 325 339 342 339 339 318 263 266 271 273 269 265 262 263 261 266 264 264 270 250 249 254 250 246 250 251 253 257 254 253 254 261 264 267 272 284 281 286 273 280 268 256
Height
1539 1538 1539 1540 1540 1540 1541 1541 1542 1542 1543 1543 1543 1542 1542 1542 1542 1542 1543 1543 1543 1543 1544 1544 1544 1544 1545 1545 1545 1546 1546 1546 1546 1546 1546 1546 1545 1545 1544 1544 1543 1542 1541
1539 1539 1539 1540 1541 1541 1541 1542 1543 1543 1544 1543 1543 1544 1543 1543 1543 1543 1544 1544 1545 1545 1545 1545 1545 1545 1546 1547 1547 1547 1547 1547 1547 1547 1547 1547 1547 1546 1546 1545 1544 1543 1542
1538 1538 1538 1540 1540 1541 1542 1542 1543 1543 1544 1544 1544 1544 1544 1544 1544 1544 1544 1545 1546 1546 1546 1546 1546 1546 1547 1547 1547 1548 1548 1548 1548 1548 1548 1548 1547 1547 1546 1546 1545 1544 1543
1537 1538 1539 1539 1540 1541 1541 1542 1543 1544 1544 1545 1545 1545 1545 1544 1544 1544 1545 1545 1546 1546 1546 1546 1546 1546 1547 1547 1548 1548 1548 1549 1549 1549 1549 1549 1549 1548 1547 1547 1546 1545 1544
1538 1538 1539 1539 1539 1540 1541 1542 1543 1543 1544 1545 1545 1545 1545 1545 1545 1545 1545 1546 1546 1546 1546 1546 1546 1546 1547 1548 1548 1548 1549 1549 1549 1549 1550 1550 1550 1549 1548 1547 1547 1546 1545
1538 1538 1538 1539 1540 1540 1541 1542 1543 1544 1544 1544 1545 1545 1545 1545 1545 1545 1545 1546 1546 1546 1546 1546 1546 1547 1548 1548 1549 1549 1549 1549 1549 1550 1550 1550 1550 1549 1549 1548 1547 1547 1546
1538 1538 1538 1538 1539 1540 1541 1542 1543 1543 1543 1544 1545 1545 1545 1545 1545 1545 1545 1545 1545 1546 1546 1546 1546 1547 1548 1549 1549 1550 1550 1549 1550 1550 1550 1550 1550 1549 1549 1548 1548 1547 1547
1538 1538 1538 1538 1539 1539 1540 1541 1542 1542 1542 1543 1544 1544 1544 1545 1545 1545 1545 1545 1545 1545 1545 1546 1546 1547 1548 1549 1549 1550 1550 1550 1550 1550 1550 1550 1549 1549 1548 1548 1548 1547 1547
1537 1537 1537 1538 1538 1538 1539 1540 1541 1541 1541 1542 1542 1543 1543 1543 1544 1544 1545 1545 1545 1545 1545 1545 1545 1546 1547 1548 1548 1549 1549 1549 1550 1550 1550 1549 1549 1549 1548 1548 1547 1547 1546
1537 1538 1537 1537 1537 1537 1537 1538 1538 1539 1540 1540 1541 1541 1541 1542 1543 1543 1543 1544 1544 1544 1544 1544 1544 1545 1546 1547 1547 1548 1548 1549 1549 1549 1549 1549 1548 1548 1548 1547 1547 1546 1545
1536 1536 1536 1536 1535 1536 1536 1536 1536 1537 1537 1538 1538 1538 1539 1540 1541 1541 1541 1542 1542 1543 1543 1543 1544 1544 1544 1545 1546 1547 1547 1547 1547 1547 1547 1547 1547 1547 1547 1547 1546 1545 1545
1533 1534 1534 1534 1533 1533 1533 1534 1534 1535 1535 1535 1536 1536 1536 1537 1538 1538 1539 1539 1540 1540 1541 1542 1542 1543 1543 1544 1545 1545 1546 1546 1546 1546 1546 1546 1546 1546 1546 1545 1545 1544 1544
1530 1530 1530 1530 1530 1530 1531 1530 1531 1531 1531 1531 1532 1532 1533 1534 1534 1534 1535 1536 1537 1537 1538 1539 1539 1540 1541 1542 1543 1543 1544 1544 1544 1544 1544 1544 1544 1545 1544 1544 1543 1543 1542
1526 1526 1526 1525 1525 1526 1526 1527 1527 1527 1527 1527 1528 1529 1528 1529 1530 1530 1530 1532 1533 1534 1535 1536 1537 1537 1538 1539 1540 1541 1542 1542 1542 1543 1543 1542 1542 1543 1543 1542 1542 1541 1541
1524 1523 1523 1522 1521 1521 1520 1521 1522 1522 1522 1523 1524 1524 1525 1525 1525 1526 1526 1527 1529 1530 1532 1533 1534 1535 1535 1536 1536 1538 1538 1539 1540 1540 1541 1541 1541 1541 1541 1541 1540 1539 1539
1522 1520 1519 1518 1517 1516 1515 1515 1516 1516 1517 1517 1518 1519 1520 1521 1521 1522 1522 1523 1524 1525 1527 1529 1530 1530 1531 1532 1532 1533 1535 1536 1536 1537 1538 1538 1539 1539 1539 1539 1538 1537 1536
1517 1516 1515 1514 1513 1512 1510 1510 1509 1509 1510 1511 1512 1513 1514 1515 1515 1517 1517 1518 1519 1521 1523 1524 1525 1525 1526 1528 1528 1529 1530 1532 1532 1533 1534 1535 1535 1535 1535 1535 1535 1534 1533
1513 1512 1510 1509 1507 1506 1504 1503 1502 1502 1502 1503 1504 1506 1507 1508 1510 1511 1512 1513 1515 1516 1517 1519 1520 1522 1522 1522 1523 1525 1526 1528 1529 1529 1530 1531 1531 1531 1531 1531 1531 1531 1530
1510 1507 1505 1503 1501 1499 1498 1495 1494 1494 1494 1495 1496 1498 1500 1502 1503 1505 1506 1507 1509 1511 1512 1513 1515 1516 1516 1517 1518 1520 1521 1523 1524 1526 1526 1526 1526 1526 1526 1526 1526 1526 1526
1505 1501 1498 1496 1494 1492 1490 1488 1486 1486 1486 1488 1489 1490 1493 1494 1497 1498 1500 1501 1503 1504 1505 1507 1508 1510 1510 1512 1514 1515 1517 1518 1519 1520 1521 1521 1521 1521 1520 1520 1520 1520 1520
1498 1495 1492 1488 1487 1485 1482 1480 1479 1478 1479 1480 1481 1484 1485 1488 1489 1491 1492 1494 1497 1498 1499 1501 1503 1504 1505 1507 1509 1510 1511 1512 1513 1514 1514 1514 1514 1514 1514 1513 1514 1514 1514
1490 1486 1483 1480 1477 1477 1474 1473 1473 1471 1471 1472 1475 1476 1478 1480 1483 1483 1486 1487 1490 1492 1493 1494 1496 1497 1498 1501 1502 1504 1505 1507 1506 1507 1508 1508 1507 1508 1507 1506 1507 1507 1507
1485 1481 1477 1474 1470 1466 1464 1465 1466 1466 1464 1466 1468 1469 1471 1473 1475 1478 1479 1481 1483 1485 1486 1489 1490 1491 1493 1496 1497 1499 1499 1499 1499 1499 1499 1500 1500 1500 1500 1499 1499 1499 1500
1482 1478 1473 1469 1464 1457 1455 1455 1459 1460 1459 1460 1462 1464 1465 1468 1469 1470 1472 1474 1477 1478 1479 1482 1485 1485 1488 1489 1491 1493 1493 1494 1494 1493 1492 1492 1492 1492 1492 1493 1493 1492 1492
1479 1475 1469 1465 1460 1455 1452 1453 1455 1456 1456 1457 1458 1458 1460 1461 1464 1465 1465 1467 1469 1472 1473 1477 1478 1479 1482 1484 1485 1486 1487 1487 1488 1488 1484 1484 1485 1484 1484 1486 1486 1485 1484
1476 1472 1466 1462 1457 1454 1452 1453 1453 1453 1453 1453 1454 1453 1454 1456 1457 1460 1459 1460 1462 1465 1467 1470 1473 1474 1475 1477 1478 1479 1481 1481 1481 1482 1480 1478 1477 1476 1476 1476 1477 1478 1478